Time,TemperatureF,DewpointF,PressureIn,WindDirection,WindDirectionDegrees,WindSpeedMPH,WindSpeedGustMPH,Humidity,HourlyPrecipIn,Conditions,Clouds,dailyrainin,SoftwareType,DateUTC
2013-01-02 00:00:00,8.0,4.0,29.99,NW,315,6.0,15.0,82,0.00,,,0.00,Rainwise IP-100,2013-01-02 05:00:00,
2013-01-02 00:05:00,8.0,4.0,29.99,WNW,292,1.0,12.0,82,0.00,,,0.00,Rainwise IP-100,2013-01-02 05:05:00,
2013-01-02 00:09:00,8.0,4.0,29.99,WNW,292,10.0,13.0,82,0.00,,,0.00,Rainwise IP-100,2013-01-02 05:09:00,
2013-01-02 00:14:00,8.0,4.0,29.99,WNW,292,0.0,13.0,82,0.00,,,0.00,Rainwise IP-100,2013-01-02 05:14:00,
2013-01-02 00:19:00,8.0,4.0,29.99,WNW,292,6.0,14.0,82,0.00,,,0.00,Rainwise IP-100,2013-01-02 05:19:00,
2013-01-02 00:24:00,8.0,4.0,29.99,WNW,292,5.0,12.0,82,0.00,,,0.00,Rainwise IP-100,2013-01-02 05:24:00,
2013-01-02 00:26:00,7.0,4.0,29.99,WNW,292,3.0,12.0,82,0.00,,,0.00,Rainwise IP-100,2013-01-02 05:26:00,
2013-01-02 00:28:00,7.0,4.0,29.99,WNW,292,1.0,12.0,82,0.00,,,0.00,Rainwise IP-100,2013-01-02 05:28:00,
2013-01-02 00:33:00,8.0,4.0,30.00,WNW,292,9.0,11.0,82,0.00,,,0.00,Rainwise IP-100,2013-01-02 05:33:00,
2013-01-02 00:38:00,7.0,4.0,30.00,WNW,292,3.0,16.0,82,0.00,,,0.00,Rainwise IP-100,2013-01-02 05:38:00,
2013-01-02 00:43:00,7.0,4.0,29.99,WNW,292,4.0,12.0,82,0.00,,,0.00,Rainwise IP-100,2013-01-02 05:43:00,
2013-01-02 00:48:00,7.0,4.0,29.99,NW,315,8.0,10.0,82,0.00,,,0.00,Rainwise IP-100,2013-01-02 05:48:00,
2013-01-02 00:53:00,7.0,4.0,29.99,WNW,292,5.0,11.0,82,0.00,,,0.00,Rainwise IP-100,2013-01-02 05:53:00,
2013-01-02 00:58:00,7.0,4.0,30.00,WNW,292,4.0,14.0,82,0.00,,,0.00,Rainwise IP-100,2013-01-02 05:58:00,
2013-01-02 01:03:00,7.0,4.0,30.00,WNW,292,4.0,7.0,82,0.00,,,0.00,Rainwise IP-100,2013-01-02 06:03:00,
2013-01-02 01:08:00,7.0,4.0,30.00,NW,315,0.0,11.0,82,0.00,,,0.00,Rainwise IP-100,2013-01-02 06:08:00,
2013-01-02 01:13:00,7.0,4.0,30.00,WNW,292,6.0,11.0,82,0.00,,,0.00,Rainwise IP-100,2013-01-02 06:13:00,
2013-01-02 01:18:00,7.0,4.0,30.00,NW,315,9.0,15.0,82,0.00,,,0.00,Rainwise IP-100,2013-01-02 06:18:00,
2013-01-02 01:23:00,6.0,4.0,30.01,NW,315,1.0,9.0,82,0.00,,,0.00,Rainwise IP-100,2013-01-02 06:23:00,
2013-01-02 01:28:00,6.0,4.0,30.01,WNW,292,5.0,8.0,82,0.00,,,0.00,Rainwise IP-100,2013-01-02 06:28:00,
2013-01-02 01:33:00,6.0,4.0,30.01,NNW,337,5.0,9.0,82,0.00,,,0.00,Rainwise IP-100,2013-01-02 06:33:00,
2013-01-02 01:38:00,6.0,4.0,30.01,NW,315,5.0,6.0,82,0.00,,,0.00,Rainwise IP-100,2013-01-02 06:38:00,
2013-01-02 01:43:00,6.0,4.0,30.01,NNW,337,3.0,6.0,82,0.00,,,0.00,Rainwise IP-100,2013-01-02 06:43:00,
2013-01-02 01:48:00,6.0,4.0,30.01,NNW,337,1.0,7.0,82,0.00,,,0.00,Rainwise IP-100,2013-01-02 06:48:00,
2013-01-02 01:53:00,5.0,4.0,30.02,NW,315,3.0,5.0,83,0.00,,,0.00,Rainwise IP-100,2013-01-02 06:53:00,
2013-01-02 01:58:00,5.0,4.0,30.03,WNW,292,0.0,3.0,83,0.00,,,0.00,Rainwise IP-100,2013-01-02 06:58:00,
2013-01-02 02:03:00,5.0,4.0,30.03,WNW,292,0.0,2.0,83,0.00,,,0.00,Rainwise IP-100,2013-01-02 07:03:00,
2013-01-02 02:08:00,4.0,0.0,30.03,WNW,292,1.0,5.0,83,0.00,,,0.00,Rainwise IP-100,2013-01-02 07:08:00,
2013-01-02 02:13:00,5.0,4.0,30.03,WNW,292,0.0,6.0,83,0.00,,,0.00,Rainwise IP-100,2013-01-02 07:13:00,
2013-01-02 02:18:00,5.0,4.0,30.03,NW,315,3.0,6.0,83,0.00,,,0.00,Rainwise IP-100,2013-01-02 07:18:00,
2013-01-02 02:23:00,5.0,4.0,30.02,WNW,292,0.0,6.0,83,0.00,,,0.00,Rainwise IP-100,2013-01-02 07:23:00,
2013-01-02 02:28:00,4.0,0.0,30.02,NW,315,1.0,5.0,83,0.00,,,0.00,Rainwise IP-100,2013-01-02 07:28:00,
2013-01-02 02:33:00,4.0,0.0,30.03,NW,315,0.0,5.0,83,0.00,,,0.00,Rainwise IP-100,2013-01-02 07:33:00,
2013-01-02 02:38:00,4.0,0.0,30.03,NW,315,2.0,6.0,83,0.00,,,0.00,Rainwise IP-100,2013-01-02 07:38:00,
2013-01-02 02:43:00,4.0,0.0,30.02,NNW,337,0.0,5.0,83,0.00,,,0.00,Rainwise IP-100,2013-01-02 07:43:00,
2013-01-02 02:48:00,4.0,0.0,30.02,NW,315,4.0,4.0,83,0.00,,,0.00,Rainwise IP-100,2013-01-02 07:48:00,
2013-01-02 02:53:00,4.0,0.0,30.02,NW,315,0.0,5.0,83,0.00,,,0.00,Rainwise IP-100,2013-01-02 07:53:00,
2013-01-02 02:58:00,4.0,0.0,30.02,NW,315,1.0,4.0,83,0.00,,,0.00,Rainwise IP-100,2013-01-02 07:58:00,
2013-01-02 03:03:00,4.0,0.0,30.02,NW,315,0.0,1.0,83,0.00,,,0.00,Rainwise IP-100,2013-01-02 08:03:00,
2013-01-02 03:08:00,3.0,0.0,30.03,West,270,0.0,0.0,83,0.00,,,0.00,Rainwise IP-100,2013-01-02 08:08:00,
2013-01-02 03:13:00,3.0,0.0,30.03,West,270,0.0,0.0,83,0.00,,,0.00,Rainwise IP-100,2013-01-02 08:13:00,
2013-01-02 03:21:00,2.0,0.0,30.02,West,270,0.0,0.0,83,0.00,,,0.00,Rainwise IP-100,2013-01-02 08:21:00,
2013-01-02 03:26:00,2.0,0.0,30.02,West,270,0.0,0.0,83,0.00,,,0.00,Rainwise IP-100,2013-01-02 08:26:00,
2013-01-02 03:31:00,2.0,0.0,30.01,West,270,0.0,0.0,83,0.00,,,0.00,Rainwise IP-100,2013-01-02 08:31:00,
2013-01-02 03:36:00,2.0,0.0,30.01,West,270,0.0,0.0,83,0.00,,,0.00,Rainwise IP-100,2013-01-02 08:36:00,
2013-01-02 03:41:00,1.0,0.0,30.01,West,270,0.0,0.0,83,0.00,,,0.00,Rainwise IP-100,2013-01-02 08:41:00,
2013-01-02 03:46:00,1.0,0.0,30.01,West,270,0.0,0.0,83,0.00,,,0.00,Rainwise IP-100,2013-01-02 08:46:00,
2013-01-02 03:51:00,1.0,0.0,30.01,WSW,247,0.0,1.0,83,0.00,,,0.00,Rainwise IP-100,2013-01-02 08:51:00,
2013-01-02 03:56:00,1.0,0.0,30.01,WSW,247,0.0,1.0,83,0.00,,,0.00,Rainwise IP-100,2013-01-02 08:56:00,
2013-01-02 04:01:00,1.0,0.0,30.01,WSW,247,0.0,0.0,83,0.00,,,0.00,Rainwise IP-100,2013-01-02 09:01:00,
2013-01-02 04:06:00,1.0,0.0,30.01,WSW,247,0.0,0.0,83,0.00,,,0.00,Rainwise IP-100,2013-01-02 09:06:00,
2013-01-02 04:12:00,1.0,0.0,30.01,WSW,247,0.0,0.0,83,0.00,,,0.00,Rainwise IP-100,2013-01-02 09:12:00,
2013-01-02 04:17:00,1.0,0.0,30.01,WSW,247,0.0,0.0,83,0.00,,,0.00,Rainwise IP-100,2013-01-02 09:17:00,
2013-01-02 04:22:00,1.0,0.0,30.01,WSW,247,0.0,0.0,83,0.00,,,0.00,Rainwise IP-100,2013-01-02 09:22:00,
2013-01-02 04:27:00,1.0,0.0,30.01,WSW,247,0.0,0.0,83,0.00,,,0.00,Rainwise IP-100,2013-01-02 09:27:00,
2013-01-02 04:32:00,1.0,0.0,30.01,WSW,247,0.0,0.0,83,0.00,,,0.00,Rainwise IP-100,2013-01-02 09:32:00,
2013-01-02 04:37:00,0.0,-6.0,30.01,WSW,247,0.0,0.0,84,0.00,,,0.00,Rainwise IP-100,2013-01-02 09:37:00,
2013-01-02 04:42:00,0.0,-6.0,30.02,WSW,247,0.0,0.0,84,0.00,,,0.00,Rainwise IP-100,2013-01-02 09:42:00,
2013-01-02 04:47:00,0.0,-6.0,30.02,WSW,247,0.0,0.0,84,0.00,,,0.00,Rainwise IP-100,2013-01-02 09:47:00,
2013-01-02 04:52:00,0.0,-6.0,30.02,WSW,247,0.0,0.0,84,0.00,,,0.00,Rainwise IP-100,2013-01-02 09:52:00,
2013-01-02 04:57:00,-1.0,-6.0,30.02,WSW,247,0.0,1.0,84,0.00,,,0.00,Rainwise IP-100,2013-01-02 09:57:00,
2013-01-02 05:02:00,-1.0,-6.0,30.02,WSW,247,0.0,0.0,84,0.00,,,0.00,Rainwise IP-100,2013-01-02 10:02:00,
2013-01-02 05:07:00,-1.0,-6.0,30.02,WSW,247,0.0,0.0,84,0.00,,,0.00,Rainwise IP-100,2013-01-02 10:07:00,
2013-01-02 05:12:00,-1.0,-6.0,30.02,WSW,247,0.0,0.0,84,0.00,,,0.00,Rainwise IP-100,2013-01-02 10:12:00,
2013-01-02 05:17:00,-1.0,-6.0,30.02,WSW,247,0.0,0.0,84,0.00,,,0.00,Rainwise IP-100,2013-01-02 10:17:00,
2013-01-02 05:22:00,-1.0,-6.0,30.02,WSW,247,0.0,0.0,84,0.00,,,0.00,Rainwise IP-100,2013-01-02 10:22:00,
2013-01-02 05:27:00,-1.0,-6.0,30.02,WSW,247,0.0,0.0,84,0.00,,,0.00,Rainwise IP-100,2013-01-02 10:27:00,
2013-01-02 05:32:00,-1.0,-6.0,30.02,WSW,247,0.0,0.0,84,0.00,,,0.00,Rainwise IP-100,2013-01-02 10:32:00,
2013-01-02 05:37:00,-1.0,-6.0,30.02,West,270,0.0,0.0,84,0.00,,,0.00,Rainwise IP-100,2013-01-02 10:37:00,
2013-01-02 05:44:00,0.0,-6.0,30.03,West,270,0.0,0.0,84,0.00,,,0.00,Rainwise IP-100,2013-01-02 10:44:00,
2013-01-02 05:49:00,0.0,-6.0,30.02,WNW,292,0.0,2.0,84,0.00,,,0.00,Rainwise IP-100,2013-01-02 10:49:00,
2013-01-02 05:54:00,0.0,-6.0,30.02,WNW,292,0.0,2.0,84,0.00,,,0.00,Rainwise IP-100,2013-01-02 10:54:00,
2013-01-02 05:59:00,1.0,0.0,30.01,WNW,292,0.0,2.0,83,0.00,,,0.00,Rainwise IP-100,2013-01-02 10:59:00,
2013-01-02 06:04:00,1.0,0.0,30.01,WNW,292,0.0,1.0,83,0.00,,,0.00,Rainwise IP-100,2013-01-02 11:04:00,
2013-01-02 06:09:00,1.0,0.0,30.01,WNW,292,0.0,0.0,83,0.00,,,0.00,Rainwise IP-100,2013-01-02 11:09:00,
2013-01-02 06:14:00,0.0,-6.0,30.01,WNW,292,0.0,0.0,84,0.00,,,0.00,Rainwise IP-100,2013-01-02 11:14:00,
2013-01-02 06:19:00,0.0,-6.0,30.02,WNW,292,0.0,0.0,84,0.00,,,0.00,Rainwise IP-100,2013-01-02 11:19:00,
2013-01-02 06:24:00,0.0,-6.0,30.03,WNW,292,0.0,1.0,84,0.00,,,0.00,Rainwise IP-100,2013-01-02 11:24:00,
2013-01-02 06:29:00,0.0,-6.0,30.03,WNW,292,0.0,1.0,84,0.00,,,0.00,Rainwise IP-100,2013-01-02 11:29:00,
2013-01-02 06:34:00,0.0,-6.0,30.02,WNW,292,0.0,0.0,84,0.00,,,0.00,Rainwise IP-100,2013-01-02 11:34:00,
2013-01-02 06:40:00,0.0,-6.0,30.02,WNW,292,0.0,1.0,84,0.00,,,0.00,Rainwise IP-100,2013-01-02 11:40:00,
2013-01-02 06:45:00,0.0,-6.0,30.02,WNW,292,0.0,0.0,84,0.00,,,0.00,Rainwise IP-100,2013-01-02 11:45:00,
2013-01-02 06:50:00,0.0,-6.0,30.03,WNW,292,0.0,0.0,84,0.00,,,0.00,Rainwise IP-100,2013-01-02 11:50:00,
2013-01-02 06:55:00,0.0,-6.0,30.03,WNW,292,0.0,0.0,84,0.00,,,0.00,Rainwise IP-100,2013-01-02 11:55:00,
2013-01-02 07:00:00,1.0,0.0,30.03,WSW,247,0.0,5.0,83,0.00,,,0.00,Rainwise IP-100,2013-01-02 12:00:00,
2013-01-02 07:05:00,1.0,0.0,30.02,NW,315,0.0,7.0,83,0.00,,,0.00,Rainwise IP-100,2013-01-02 12:05:00,
2013-01-02 07:10:00,1.0,0.0,30.02,NW,315,0.0,6.0,83,0.00,,,0.00,Rainwise IP-100,2013-01-02 12:10:00,
2013-01-02 07:15:00,1.0,0.0,30.02,NW,315,0.0,2.0,83,0.00,,,0.00,Rainwise IP-100,2013-01-02 12:15:00,
2013-01-02 07:20:00,1.0,0.0,30.02,NW,315,0.0,1.0,83,0.00,,,0.00,Rainwise IP-100,2013-01-02 12:20:00,
2013-01-02 07:26:00,1.0,0.0,30.02,NW,315,2.0,3.0,83,0.00,,,0.00,Rainwise IP-100,2013-01-02 12:26:00,
2013-01-02 07:31:00,1.0,0.0,30.03,NW,315,0.0,2.0,83,0.00,,,0.00,Rainwise IP-100,2013-01-02 12:31:00,
2013-01-02 07:36:00,2.0,0.0,30.03,NW,315,0.0,0.0,83,0.00,,,0.00,Rainwise IP-100,2013-01-02 12:36:00,
2013-01-02 07:41:00,2.0,0.0,30.03,NW,315,0.0,1.0,83,0.00,,,0.00,Rainwise IP-100,2013-01-02 12:41:00,
2013-01-02 07:46:00,3.0,0.0,30.03,NW,315,0.0,0.0,83,0.00,,,0.00,Rainwise IP-100,2013-01-02 12:46:00,
2013-01-02 07:51:00,5.0,4.0,30.03,NW,315,0.0,0.0,83,0.00,,,0.00,Rainwise IP-100,2013-01-02 12:51:00,
2013-01-02 07:56:00,6.0,4.0,30.02,WNW,292,0.0,2.0,82,0.00,,,0.00,Rainwise IP-100,2013-01-02 12:56:00,
2013-01-02 08:01:00,7.0,4.0,30.02,West,270,0.0,7.0,82,0.00,,,0.00,Rainwise IP-100,2013-01-02 13:01:00,
2013-01-02 08:06:00,8.0,4.0,30.02,WNW,292,0.0,6.0,82,0.00,,,0.00,Rainwise IP-100,2013-01-02 13:06:00,
2013-01-02 08:11:00,10.0,8.0,30.02,WNW,292,0.0,4.0,81,0.00,,,0.00,Rainwise IP-100,2013-01-02 13:11:00,
2013-01-02 08:16:00,11.0,8.0,30.01,WNW,292,0.0,2.0,81,0.00,,,0.00,Rainwise IP-100,2013-01-02 13:16:00,
2013-01-02 08:21:00,11.0,8.0,30.02,WNW,292,0.0,5.0,81,0.00,,,0.00,Rainwise IP-100,2013-01-02 13:21:00,
2013-01-02 08:26:00,11.0,8.0,30.02,NW,315,0.0,6.0,81,0.00,,,0.00,Rainwise IP-100,2013-01-02 13:26:00,
2013-01-02 08:31:00,10.0,8.0,30.03,WNW,292,1.0,7.0,81,0.00,,,0.00,Rainwise IP-100,2013-01-02 13:31:00,
2013-01-02 08:36:00,10.0,8.0,30.03,WNW,292,8.0,8.0,81,0.00,,,0.00,Rainwise IP-100,2013-01-02 13:36:00,
2013-01-02 08:41:00,11.0,8.0,30.03,WSW,247,0.0,8.0,81,0.00,,,0.00,Rainwise IP-100,2013-01-02 13:41:00,
2013-01-02 08:46:00,11.0,8.0,30.03,WNW,292,7.0,8.0,81,0.00,,,0.00,Rainwise IP-100,2013-01-02 13:46:00,
2013-01-02 08:51:00,11.0,8.0,30.03,WNW,292,0.0,8.0,81,0.00,,,0.00,Rainwise IP-100,2013-01-02 13:51:00,
2013-01-02 08:56:00,13.0,8.0,30.03,WSW,247,0.0,7.0,80,0.00,,,0.00,Rainwise IP-100,2013-01-02 13:56:00,
2013-01-02 09:02:00,13.0,8.0,30.03,West,270,0.0,6.0,80,0.00,,,0.00,Rainwise IP-100,2013-01-02 14:02:00,
2013-01-02 09:07:00,12.0,8.0,30.03,West,270,6.0,11.0,80,0.00,,,0.00,Rainwise IP-100,2013-01-02 14:07:00,
2013-01-02 09:12:00,12.0,8.0,30.03,WNW,292,6.0,10.0,80,0.00,,,0.00,Rainwise IP-100,2013-01-02 14:12:00,
2013-01-02 09:17:00,12.0,8.0,30.03,WNW,292,7.0,12.0,80,0.00,,,0.00,Rainwise IP-100,2013-01-02 14:17:00,
2013-01-02 09:22:00,11.0,8.0,30.04,WNW,292,1.0,11.0,81,0.00,,,0.00,Rainwise IP-100,2013-01-02 14:22:00,
2013-01-02 09:28:00,12.0,8.0,30.04,West,270,0.0,10.0,80,0.00,,,0.00,Rainwise IP-100,2013-01-02 14:28:00,
2013-01-02 09:33:00,12.0,8.0,30.04,WNW,292,3.0,13.0,80,0.00,,,0.00,Rainwise IP-100,2013-01-02 14:33:00,
2013-01-02 09:38:00,12.0,8.0,30.05,NW,315,0.0,10.0,80,0.00,,,0.00,Rainwise IP-100,2013-01-02 14:38:00,
2013-01-02 09:43:00,12.0,8.0,30.04,West,270,6.0,13.0,80,0.00,,,0.00,Rainwise IP-100,2013-01-02 14:43:00,
2013-01-02 09:48:00,12.0,8.0,30.05,West,270,5.0,10.0,80,0.00,,,0.00,Rainwise IP-100,2013-01-02 14:48:00,
2013-01-02 09:53:00,12.0,8.0,30.05,WNW,292,3.0,12.0,80,0.00,,,0.00,Rainwise IP-100,2013-01-02 14:53:00,
2013-01-02 09:59:00,12.0,8.0,30.05,WNW,292,2.0,10.0,80,0.00,,,0.00,Rainwise IP-100,2013-01-02 14:59:00,
2013-01-02 10:04:00,12.0,8.0,30.04,WNW,292,6.0,12.0,80,0.00,,,0.00,Rainwise IP-100,2013-01-02 15:04:00,
2013-01-02 10:09:00,12.0,8.0,30.04,WNW,292,7.0,12.0,80,0.00,,,0.00,Rainwise IP-100,2013-01-02 15:09:00,
2013-01-02 10:14:00,12.0,8.0,30.04,WNW,292,6.0,10.0,80,0.00,,,0.00,Rainwise IP-100,2013-01-02 15:14:00,
2013-01-02 10:19:00,12.0,8.0,30.04,WSW,247,3.0,16.0,80,0.00,,,0.00,Rainwise IP-100,2013-01-02 15:19:00,
2013-01-02 10:24:00,12.0,8.0,30.04,NW,315,0.0,11.0,80,0.00,,,0.00,Rainwise IP-100,2013-01-02 15:24:00,
2013-01-02 10:29:00,12.0,8.0,30.04,NW,315,3.0,12.0,80,0.00,,,0.00,Rainwise IP-100,2013-01-02 15:29:00,
2013-01-02 10:34:00,12.0,8.0,30.03,NW,315,0.0,15.0,80,0.00,,,0.00,Rainwise IP-100,2013-01-02 15:34:00,
2013-01-02 10:39:00,12.0,8.0,30.03,WNW,292,9.0,13.0,80,0.00,,,0.00,Rainwise IP-100,2013-01-02 15:39:00,
2013-01-02 10:44:00,13.0,8.0,30.03,West,270,0.0,11.0,80,0.00,,,0.00,Rainwise IP-100,2013-01-02 15:44:00,
2013-01-02 10:49:00,13.0,8.0,30.03,West,270,11.0,13.0,80,0.00,,,0.00,Rainwise IP-100,2013-01-02 15:49:00,
2013-01-02 10:54:00,12.0,8.0,30.03,WNW,292,1.0,17.0,80,0.00,,,0.00,Rainwise IP-100,2013-01-02 15:54:00,
2013-01-02 11:00:00,12.0,8.0,30.03,NW,315,3.0,14.0,80,0.00,,,0.00,Rainwise IP-100,2013-01-02 16:00:00,
2013-01-02 11:05:00,13.0,8.0,30.03,NNW,337,9.0,9.0,80,0.00,,,0.00,Rainwise IP-100,2013-01-02 16:05:00,
2013-01-02 11:10:00,13.0,8.0,30.03,NW,315,4.0,15.0,80,0.00,,,0.00,Rainwise IP-100,2013-01-02 16:10:00,
2013-01-02 11:15:00,12.0,8.0,30.03,West,270,6.0,17.0,80,0.00,,,0.00,Rainwise IP-100,2013-01-02 16:15:00,
2013-01-02 11:20:00,12.0,8.0,30.02,WNW,292,9.0,16.0,80,0.00,,,0.00,Rainwise IP-100,2013-01-02 16:20:00,
2013-01-02 11:25:00,12.0,8.0,30.02,NW,315,8.0,15.0,80,0.00,,,0.00,Rainwise IP-100,2013-01-02 16:25:00,
2013-01-02 11:30:00,12.0,8.0,30.01,WNW,292,7.0,15.0,80,0.00,,,0.00,Rainwise IP-100,2013-01-02 16:30:00,
2013-01-02 11:35:00,12.0,8.0,30.02,NW,315,3.0,13.0,80,0.00,,,0.00,Rainwise IP-100,2013-01-02 16:35:00,
2013-01-02 11:40:00,12.0,8.0,30.01,WNW,292,6.0,16.0,80,0.00,,,0.00,Rainwise IP-100,2013-01-02 16:40:00,
2013-01-02 11:45:00,12.0,8.0,30.01,WNW,292,3.0,13.0,80,0.00,,,0.00,Rainwise IP-100,2013-01-02 16:45:00,
2013-01-02 11:50:00,12.0,8.0,30.01,WNW,292,6.0,12.0,80,0.00,,,0.00,Rainwise IP-100,2013-01-02 16:50:00,
2013-01-02 11:55:00,12.0,8.0,30.01,WNW,292,7.0,19.0,80,0.00,,,0.00,Rainwise IP-100,2013-01-02 16:55:00,
2013-01-02 12:00:00,13.0,8.0,30.01,WNW,292,4.0,15.0,80,0.00,,,0.00,Rainwise IP-100,2013-01-02 17:00:00,
2013-01-02 12:05:00,13.0,8.0,30.01,NW,315,14.0,24.0,80,0.00,,,0.00,Rainwise IP-100,2013-01-02 17:05:00,
2013-01-02 12:12:00,12.0,8.0,30.00,NW,315,6.0,19.0,80,0.00,,,0.00,Rainwise IP-100,2013-01-02 17:12:00,
2013-01-02 12:17:00,12.0,8.0,30.01,NW,315,9.0,19.0,80,0.00,,,0.00,Rainwise IP-100,2013-01-02 17:17:00,
2013-01-02 12:22:00,12.0,8.0,30.01,WNW,292,4.0,16.0,80,0.00,,,0.00,Rainwise IP-100,2013-01-02 17:22:00,
2013-01-02 12:27:00,12.0,8.0,30.00,NW,315,9.0,17.0,80,0.00,,,0.00,Rainwise IP-100,2013-01-02 17:27:00,
2013-01-02 12:32:00,12.0,8.0,30.00,NW,315,6.0,11.0,80,0.00,,,0.00,Rainwise IP-100,2013-01-02 17:32:00,
2013-01-02 12:37:00,12.0,8.0,29.99,NW,315,10.0,16.0,80,0.00,,,0.00,Rainwise IP-100,2013-01-02 17:37:00,
2013-01-02 12:42:00,12.0,8.0,29.99,West,270,6.0,16.0,80,0.00,,,0.00,Rainwise IP-100,2013-01-02 17:42:00,
2013-01-02 12:47:00,12.0,8.0,29.99,WNW,292,8.0,15.0,80,0.00,,,0.00,Rainwise IP-100,2013-01-02 17:47:00,
2013-01-02 12:53:00,13.0,8.0,29.99,NW,315,9.0,19.0,80,0.00,,,0.00,Rainwise IP-100,2013-01-02 17:53:00,
2013-01-02 12:58:00,13.0,8.0,29.99,NW,315,16.0,16.0,80,0.00,,,0.00,Rainwise IP-100,2013-01-02 17:58:00,
2013-01-02 13:03:00,13.0,8.0,29.98,WNW,292,7.0,17.0,80,0.00,,,0.00,Rainwise IP-100,2013-01-02 18:03:00,
2013-01-02 13:08:00,13.0,8.0,29.99,WNW,292,6.0,22.0,80,0.00,,,0.00,Rainwise IP-100,2013-01-02 18:08:00,
2013-01-02 13:13:00,13.0,8.0,29.98,NW,315,21.0,21.0,80,0.00,,,0.00,Rainwise IP-100,2013-01-02 18:13:00,
2013-01-02 13:18:00,13.0,8.0,29.99,WNW,292,12.0,22.0,80,0.00,,,0.00,Rainwise IP-100,2013-01-02 18:18:00,
2013-01-02 13:23:00,13.0,8.0,29.99,WNW,292,6.0,26.0,80,0.00,,,0.00,Rainwise IP-100,2013-01-02 18:23:00,
2013-01-02 13:28:00,13.0,8.0,29.99,NW,315,10.0,25.0,80,0.00,,,0.00,Rainwise IP-100,2013-01-02 18:28:00,
2013-01-02 13:33:00,13.0,8.0,29.99,West,270,5.0,23.0,80,0.00,,,0.00,Rainwise IP-100,2013-01-02 18:33:00,
2013-01-02 13:38:00,13.0,8.0,29.99,WNW,292,9.0,20.0,80,0.00,,,0.00,Rainwise IP-100,2013-01-02 18:38:00,
2013-01-02 13:43:00,13.0,8.0,29.98,WNW,292,12.0,25.0,80,0.00,,,0.00,Rainwise IP-100,2013-01-02 18:43:00,
2013-01-02 13:48:00,13.0,8.0,29.99,WNW,292,9.0,27.0,80,0.00,,,0.00,Rainwise IP-100,2013-01-02 18:48:00,
2013-01-02 13:53:00,13.0,8.0,29.99,NNW,337,13.0,19.0,80,0.00,,,0.00,Rainwise IP-100,2013-01-02 18:53:00,
2013-01-02 13:58:00,13.0,8.0,30.00,NNW,337,16.0,17.0,80,0.00,,,0.00,Rainwise IP-100,2013-01-02 18:58:00,
2013-01-02 14:03:00,13.0,8.0,30.00,NW,315,7.0,19.0,80,0.00,,,0.00,Rainwise IP-100,2013-01-02 19:03:00,
2013-01-02 14:09:00,13.0,8.0,29.99,WNW,292,7.0,17.0,80,0.00,,,0.00,Rainwise IP-100,2013-01-02 19:09:00,
2013-01-02 14:14:00,13.0,8.0,29.99,WNW,292,2.0,13.0,80,0.00,,,0.00,Rainwise IP-100,2013-01-02 19:14:00,
2013-01-02 14:19:00,13.0,8.0,30.00,NW,315,7.0,12.0,80,0.00,,,0.00,Rainwise IP-100,2013-01-02 19:19:00,
2013-01-02 14:24:00,13.0,8.0,29.99,WSW,247,9.0,17.0,80,0.00,,,0.00,Rainwise IP-100,2013-01-02 19:24:00,
2013-01-02 14:29:00,12.0,8.0,29.99,NW,315,11.0,18.0,80,0.00,,,0.00,Rainwise IP-100,2013-01-02 19:29:00,
2013-01-02 14:34:00,12.0,8.0,30.00,NW,315,7.0,15.0,80,0.00,,,0.00,Rainwise IP-100,2013-01-02 19:34:00,
2013-01-02 14:39:00,12.0,8.0,29.99,WNW,292,4.0,22.0,80,0.00,,,0.00,Rainwise IP-100,2013-01-02 19:39:00,
2013-01-02 14:44:00,12.0,8.0,30.01,WNW,292,6.0,14.0,80,0.00,,,0.00,Rainwise IP-100,2013-01-02 19:44:00,
2013-01-02 14:49:00,12.0,8.0,30.01,West,270,4.0,17.0,80,0.00,,,0.00,Rainwise IP-100,2013-01-02 19:49:00,
2013-01-02 14:54:00,11.0,8.0,30.01,NNW,337,10.0,14.0,81,0.00,,,0.00,Rainwise IP-100,2013-01-02 19:54:00,
2013-01-02 14:59:00,11.0,8.0,30.02,NW,315,3.0,17.0,81,0.00,,,0.00,Rainwise IP-100,2013-01-02 19:59:00,
2013-01-02 15:04:00,11.0,8.0,30.01,NNW,337,6.0,15.0,81,0.00,,,0.00,Rainwise IP-100,2013-01-02 20:04:00,
2013-01-02 15:09:00,11.0,8.0,30.02,WNW,292,6.0,16.0,81,0.00,,,0.00,Rainwise IP-100,2013-01-02 20:09:00,
2013-01-02 15:14:00,11.0,8.0,30.03,WNW,292,0.0,14.0,81,0.00,,,0.00,Rainwise IP-100,2013-01-02 20:14:00,
2013-01-02 15:19:00,11.0,8.0,30.03,WNW,292,11.0,15.0,81,0.00,,,0.00,Rainwise IP-100,2013-01-02 20:19:00,
2013-01-02 15:24:00,11.0,8.0,30.03,WNW,292,9.0,17.0,81,0.00,,,0.00,Rainwise IP-100,2013-01-02 20:24:00,
2013-01-02 15:29:00,10.0,8.0,30.03,WNW,292,2.0,13.0,81,0.00,,,0.00,Rainwise IP-100,2013-01-02 20:29:00,
2013-01-02 15:34:00,10.0,8.0,30.04,NW,315,7.0,15.0,81,0.00,,,0.00,Rainwise IP-100,2013-01-02 20:34:00,
2013-01-02 15:39:00,10.0,8.0,30.04,WNW,292,13.0,17.0,81,0.00,,,0.00,Rainwise IP-100,2013-01-02 20:39:00,
2013-01-02 15:44:00,10.0,8.0,30.04,WNW,292,7.0,17.0,81,0.00,,,0.00,Rainwise IP-100,2013-01-02 20:44:00,
2013-01-02 15:50:00,10.0,8.0,30.05,WNW,292,9.0,19.0,81,0.00,,,0.00,Rainwise IP-100,2013-01-02 20:50:00,
2013-01-02 15:55:00,10.0,8.0,30.06,NNW,337,9.0,16.0,81,0.00,,,0.00,Rainwise IP-100,2013-01-02 20:55:00,
2013-01-02 16:00:00,10.0,8.0,30.06,WNW,292,6.0,16.0,81,0.00,,,0.00,Rainwise IP-100,2013-01-02 21:00:00,
2013-01-02 16:05:00,9.0,8.0,30.05,WNW,292,5.0,12.0,82,0.00,,,0.00,Rainwise IP-100,2013-01-02 21:05:00,
2013-01-02 16:11:00,9.0,8.0,30.06,NW,315,7.0,14.0,82,0.00,,,0.00,Rainwise IP-100,2013-01-02 21:11:00,
2013-01-02 16:16:00,9.0,8.0,30.06,WNW,292,1.0,13.0,82,0.00,,,0.00,Rainwise IP-100,2013-01-02 21:16:00,
2013-01-02 16:21:00,9.0,8.0,30.06,WNW,292,6.0,13.0,82,0.00,,,0.00,Rainwise IP-100,2013-01-02 21:21:00,
2013-01-02 16:26:00,9.0,8.0,30.07,WNW,292,7.0,17.0,82,0.00,,,0.00,Rainwise IP-100,2013-01-02 21:26:00,
2013-01-02 16:31:00,9.0,8.0,30.07,WNW,292,3.0,19.0,82,0.00,,,0.00,Rainwise IP-100,2013-01-02 21:31:00,
2013-01-02 16:36:00,9.0,8.0,30.07,West,270,6.0,12.0,82,0.00,,,0.00,Rainwise IP-100,2013-01-02 21:36:00,
2013-01-02 16:41:00,8.0,4.0,30.07,WNW,292,9.0,16.0,82,0.00,,,0.00,Rainwise IP-100,2013-01-02 21:41:00,
2013-01-02 16:46:00,8.0,4.0,30.08,WNW,292,6.0,14.0,82,0.00,,,0.00,Rainwise IP-100,2013-01-02 21:46:00,
2013-01-02 16:51:00,8.0,4.0,30.08,WNW,292,6.0,16.0,82,0.00,,,0.00,Rainwise IP-100,2013-01-02 21:51:00,
2013-01-02 16:56:00,8.0,4.0,30.08,WNW,292,3.0,16.0,82,0.00,,,0.00,Rainwise IP-100,2013-01-02 21:56:00,
2013-01-02 17:01:00,8.0,4.0,30.08,WNW,292,1.0,17.0,82,0.00,,,0.00,Rainwise IP-100,2013-01-02 22:01:00,
2013-01-02 17:06:00,8.0,4.0,30.08,WNW,292,5.0,13.0,82,0.00,,,0.00,Rainwise IP-100,2013-01-02 22:06:00,
2013-01-02 17:11:00,8.0,4.0,30.09,WNW,292,5.0,13.0,82,0.00,,,0.00,Rainwise IP-100,2013-01-02 22:11:00,
2013-01-02 17:16:00,8.0,4.0,30.09,West,270,11.0,20.0,82,0.00,,,0.00,Rainwise IP-100,2013-01-02 22:16:00,
2013-01-02 17:21:00,8.0,4.0,30.09,NW,315,14.0,17.0,82,0.00,,,0.00,Rainwise IP-100,2013-01-02 22:21:00,
2013-01-02 17:26:00,7.0,4.0,30.09,WNW,292,6.0,16.0,82,0.00,,,0.00,Rainwise IP-100,2013-01-02 22:26:00,
2013-01-02 17:31:00,7.0,4.0,30.10,WNW,292,6.0,12.0,82,0.00,,,0.00,Rainwise IP-100,2013-01-02 22:31:00,
2013-01-02 17:36:00,7.0,4.0,30.10,WNW,292,4.0,9.0,82,0.00,,,0.00,Rainwise IP-100,2013-01-02 22:36:00,
2013-01-02 17:41:00,7.0,4.0,30.10,WNW,292,6.0,15.0,82,0.00,,,0.00,Rainwise IP-100,2013-01-02 22:41:00,
2013-01-02 17:46:00,7.0,4.0,30.10,NW,315,6.0,11.0,82,0.00,,,0.00,Rainwise IP-100,2013-01-02 22:46:00,
2013-01-02 17:51:00,7.0,4.0,30.11,NW,315,15.0,15.0,82,0.00,,,0.00,Rainwise IP-100,2013-01-02 22:51:00,
2013-01-02 17:56:00,7.0,4.0,30.10,WNW,292,7.0,15.0,82,0.00,,,0.00,Rainwise IP-100,2013-01-02 22:56:00,
2013-01-02 18:02:00,7.0,4.0,30.10,NW,315,5.0,14.0,82,0.00,,,0.00,Rainwise IP-100,2013-01-02 23:02:00,
2013-01-02 18:07:00,6.0,4.0,30.11,WNW,292,9.0,10.0,82,0.00,,,0.00,Rainwise IP-100,2013-01-02 23:07:00,
2013-01-02 18:12:00,6.0,4.0,30.11,WNW,292,4.0,17.0,82,0.00,,,0.00,Rainwise IP-100,2013-01-02 23:12:00,
2013-01-02 18:17:00,6.0,4.0,30.11,WNW,292,8.0,15.0,82,0.00,,,0.00,Rainwise IP-100,2013-01-02 23:17:00,
2013-01-02 18:22:00,6.0,4.0,30.11,WNW,292,5.0,16.0,82,0.00,,,0.00,Rainwise IP-100,2013-01-02 23:22:00,
2013-01-02 18:27:00,6.0,4.0,30.11,WNW,292,4.0,15.0,82,0.00,,,0.00,Rainwise IP-100,2013-01-02 23:27:00,
2013-01-02 18:32:00,6.0,4.0,30.10,West,270,5.0,19.0,82,0.00,,,0.00,Rainwise IP-100,2013-01-02 23:32:00,
2013-01-02 18:37:00,6.0,4.0,30.10,WNW,292,6.0,22.0,82,0.00,,,0.00,Rainwise IP-100,2013-01-02 23:37:00,
2013-01-02 18:42:00,5.0,4.0,30.11,WNW,292,6.0,17.0,83,0.00,,,0.00,Rainwise IP-100,2013-01-02 23:42:00,
2013-01-02 18:47:00,5.0,4.0,30.12,WNW,292,0.0,14.0,83,0.00,,,0.00,Rainwise IP-100,2013-01-02 23:47:00,
2013-01-02 18:52:00,5.0,4.0,30.13,NW,315,5.0,11.0,83,0.00,,,0.00,Rainwise IP-100,2013-01-02 23:52:00,
2013-01-02 18:57:00,5.0,4.0,30.13,NNW,337,6.0,15.0,83,0.00,,,0.00,Rainwise IP-100,2013-01-02 23:57:00,
2013-01-02 19:02:00,5.0,4.0,30.13,WNW,292,2.0,13.0,83,0.00,,,0.00,Rainwise IP-100,2013-01-03 00:02:00,
2013-01-02 19:07:00,5.0,4.0,30.13,WNW,292,10.0,16.0,83,0.00,,,0.00,Rainwise IP-100,2013-01-03 00:07:00,
2013-01-02 19:12:00,5.0,4.0,30.13,WNW,292,10.0,17.0,83,0.00,,,0.00,Rainwise IP-100,2013-01-03 00:12:00,
2013-01-02 19:17:00,4.0,0.0,30.13,WNW,292,7.0,15.0,83,0.00,,,0.00,Rainwise IP-100,2013-01-03 00:17:00,
2013-01-02 19:22:00,4.0,0.0,30.13,NW,315,4.0,14.0,83,0.00,,,0.00,Rainwise IP-100,2013-01-03 00:22:00,
2013-01-02 19:27:00,4.0,0.0,30.13,NNW,337,10.0,12.0,83,0.00,,,0.00,Rainwise IP-100,2013-01-03 00:27:00,
2013-01-02 19:35:00,4.0,0.0,30.13,WNW,292,7.0,13.0,83,0.00,,,0.00,Rainwise IP-100,2013-01-03 00:35:00,
2013-01-02 19:40:00,4.0,0.0,30.13,WNW,292,1.0,13.0,83,0.00,,,0.00,Rainwise IP-100,2013-01-03 00:40:00,
2013-01-02 19:45:00,3.0,0.0,30.14,WNW,292,5.0,12.0,83,0.00,,,0.00,Rainwise IP-100,2013-01-03 00:45:00,
2013-01-02 19:50:00,3.0,0.0,30.14,WNW,292,3.0,11.0,83,0.00,,,0.00,Rainwise IP-100,2013-01-03 00:50:00,
2013-01-02 19:55:00,3.0,0.0,30.13,WNW,292,7.0,14.0,83,0.00,,,0.00,Rainwise IP-100,2013-01-03 00:55:00,
2013-01-02 20:00:00,3.0,0.0,30.13,WNW,292,6.0,15.0,83,0.00,,,0.00,Rainwise IP-100,2013-01-03 01:00:00,
2013-01-02 20:05:00,3.0,0.0,30.13,WNW,292,6.0,14.0,83,0.00,,,0.00,Rainwise IP-100,2013-01-03 01:05:00,
2013-01-02 20:10:00,3.0,0.0,30.14,WNW,292,6.0,14.0,83,0.00,,,0.00,Rainwise IP-100,2013-01-03 01:10:00,
2013-01-02 20:15:00,2.0,0.0,30.14,WNW,292,7.0,15.0,83,0.00,,,0.00,Rainwise IP-100,2013-01-03 01:15:00,
2013-01-02 20:20:00,2.0,0.0,30.14,WNW,292,8.0,17.0,83,0.00,,,0.00,Rainwise IP-100,2013-01-03 01:20:00,
2013-01-02 20:25:00,2.0,0.0,30.14,WNW,292,3.0,16.0,83,0.00,,,0.00,Rainwise IP-100,2013-01-03 01:25:00,
2013-01-02 20:30:00,2.0,0.0,30.13,WNW,292,4.0,12.0,83,0.00,,,0.00,Rainwise IP-100,2013-01-03 01:30:00,
2013-01-02 20:35:00,2.0,0.0,30.14,NNW,337,7.0,19.0,83,0.00,,,0.00,Rainwise IP-100,2013-01-03 01:35:00,
2013-01-02 20:41:00,2.0,0.0,30.14,WNW,292,0.0,16.0,83,0.00,,,0.00,Rainwise IP-100,2013-01-03 01:41:00,
2013-01-02 20:46:00,2.0,0.0,30.14,WNW,292,0.0,10.0,83,0.00,,,0.00,Rainwise IP-100,2013-01-03 01:46:00,
2013-01-02 20:51:00,2.0,0.0,30.15,NW,315,0.0,9.0,83,0.00,,,0.00,Rainwise IP-100,2013-01-03 01:51:00,
2013-01-02 20:56:00,2.0,0.0,30.15,WNW,292,4.0,16.0,83,0.00,,,0.00,Rainwise IP-100,2013-01-03 01:56:00,
2013-01-02 21:01:00,2.0,0.0,30.14,NW,315,6.0,15.0,83,0.00,,,0.00,Rainwise IP-100,2013-01-03 02:01:00,
2013-01-02 21:06:00,2.0,0.0,30.14,NW,315,9.0,19.0,83,0.00,,,0.00,Rainwise IP-100,2013-01-03 02:06:00,
2013-01-02 21:11:00,2.0,0.0,30.13,NNW,337,15.0,16.0,83,0.00,,,0.00,Rainwise IP-100,2013-01-03 02:11:00,
2013-01-02 21:16:00,1.0,0.0,30.13,NW,315,5.0,15.0,83,0.00,,,0.00,Rainwise IP-100,2013-01-03 02:16:00,
2013-01-02 21:21:00,1.0,0.0,30.13,WNW,292,7.0,15.0,83,0.00,,,0.00,Rainwise IP-100,2013-01-03 02:21:00,
2013-01-02 21:26:00,1.0,0.0,30.13,WNW,292,5.0,16.0,83,0.00,,,0.00,Rainwise IP-100,2013-01-03 02:26:00,
2013-01-02 21:31:00,1.0,0.0,30.13,WNW,292,3.0,13.0,83,0.00,,,0.00,Rainwise IP-100,2013-01-03 02:31:00,
2013-01-02 21:36:00,1.0,0.0,30.13,WNW,292,7.0,16.0,83,0.00,,,0.00,Rainwise IP-100,2013-01-03 02:36:00,
2013-01-02 21:41:00,1.0,0.0,30.13,NNW,337,15.0,18.0,83,0.00,,,0.00,Rainwise IP-100,2013-01-03 02:41:00,
2013-01-02 21:46:00,1.0,0.0,30.14,NW,315,13.0,17.0,83,0.00,,,0.00,Rainwise IP-100,2013-01-03 02:46:00,
2013-01-02 21:51:00,1.0,0.0,30.14,NW,315,14.0,18.0,83,0.00,,,0.00,Rainwise IP-100,2013-01-03 02:51:00,
2013-01-02 21:56:00,1.0,0.0,30.13,NW,315,7.0,18.0,83,0.00,,,0.00,Rainwise IP-100,2013-01-03 02:56:00,
2013-01-02 22:01:00,1.0,0.0,30.14,NW,315,5.0,17.0,83,0.00,,,0.00,Rainwise IP-100,2013-01-03 03:01:00,
2013-01-02 22:06:00,1.0,0.0,30.14,WNW,292,9.0,15.0,83,0.00,,,0.00,Rainwise IP-100,2013-01-03 03:06:00,
2013-01-02 22:11:00,1.0,0.0,30.15,WNW,292,5.0,12.0,83,0.00,,,0.00,Rainwise IP-100,2013-01-03 03:11:00,
2013-01-02 22:16:00,1.0,0.0,30.15,WNW,292,9.0,12.0,83,0.00,,,0.00,Rainwise IP-100,2013-01-03 03:16:00,
2013-01-02 22:21:00,1.0,0.0,30.15,WNW,292,6.0,13.0,83,0.00,,,0.00,Rainwise IP-100,2013-01-03 03:21:00,
2013-01-02 22:26:00,0.0,-6.0,30.16,WNW,292,2.0,10.0,84,0.00,,,0.00,Rainwise IP-100,2013-01-03 03:26:00,
2013-01-02 22:31:00,0.0,-6.0,30.16,WNW,292,4.0,14.0,84,0.00,,,0.00,Rainwise IP-100,2013-01-03 03:31:00,
2013-01-02 22:38:00,0.0,-6.0,30.17,WNW,292,0.0,7.0,84,0.00,,,0.00,Rainwise IP-100,2013-01-03 03:38:00,
2013-01-02 22:43:00,0.0,-6.0,30.17,WNW,292,4.0,10.0,84,0.00,,,0.00,Rainwise IP-100,2013-01-03 03:43:00,
2013-01-02 22:48:00,0.0,-6.0,30.17,WNW,292,3.0,10.0,84,0.00,,,0.00,Rainwise IP-100,2013-01-03 03:48:00,
2013-01-02 22:53:00,0.0,-6.0,30.17,WNW,292,5.0,11.0,84,0.00,,,0.00,Rainwise IP-100,2013-01-03 03:53:00,
2013-01-02 22:58:00,0.0,-6.0,30.17,NNW,337,7.0,12.0,84,0.00,,,0.00,Rainwise IP-100,2013-01-03 03:58:00,
2013-01-02 23:03:00,0.0,-6.0,30.17,WNW,292,6.0,14.0,84,0.00,,,0.00,Rainwise IP-100,2013-01-03 04:03:00,
2013-01-02 23:08:00,1.0,0.0,30.16,WNW,292,5.0,12.0,83,0.00,,,0.00,Rainwise IP-100,2013-01-03 04:08:00,
2013-01-02 23:13:00,1.0,0.0,30.16,WNW,292,1.0,16.0,83,0.00,,,0.00,Rainwise IP-100,2013-01-03 04:13:00,
2013-01-02 23:18:00,1.0,0.0,30.17,West,270,0.0,11.0,83,0.00,,,0.00,Rainwise IP-100,2013-01-03 04:18:00,
2013-01-02 23:23:00,0.0,-6.0,30.17,WNW,292,0.0,7.0,84,0.00,,,0.00,Rainwise IP-100,2013-01-03 04:23:00,
2013-01-02 23:30:00,0.0,-6.0,30.18,WNW,292,0.0,6.0,84,0.00,,,0.00,Rainwise IP-100,2013-01-03 04:30:00,
2013-01-02 23:35:00,0.0,-6.0,30.18,NNW,337,3.0,7.0,84,0.00,,,0.00,Rainwise IP-100,2013-01-03 04:35:00,
2013-01-02 23:40:00,0.0,-6.0,30.18,WNW,292,0.0,9.0,84,0.00,,,0.00,Rainwise IP-100,2013-01-03 04:40:00,
2013-01-02 23:45:00,0.0,-6.0,30.18,NW,315,7.0,8.0,84,0.00,,,0.00,Rainwise IP-100,2013-01-03 04:45:00,
2013-01-02 23:50:00,1.0,0.0,30.17,WNW,292,0.0,12.0,83,0.00,,,0.00,Rainwise IP-100,2013-01-03 04:50:00,
2013-01-02 23:56:00,0.0,-6.0,30.17,WNW,292,1.0,7.0,84,0.00,,,0.00,Rainwise IP-100,2013-01-03 04:56:00,